Wind_Speed
3 3 3 3 3 3 3 3 3 3 3 3 3 3 3 3 3 3 3 3 3 3 3 4 4 4 5 5 5 5 5 5 5 5 5 6 6 6 7 7 7 7 7
3 2 3 2 3 2 2 2 3 3 3 3 2 2 3 3 3 4 4 4 4 4 4 4 4 5 5 5 5 5 5 5 5 6 6 5 5 6 7 7 7 7 7
3 2 2 2 1 1 1 2 2 3 3 3 2 2 3 4 4 4 5 5 5 5 5 5 5 5 5 6 6 5 5 5 6 6 6 6 6 7 7 8 8 8 8
2 2 2 1 1 1 1 2 3 3 3 3 3 4 4 5 5 6 6 6 6 7 6 6 6 6 6 6 6 6 6 6 6 7 7 7 7 8 8 8 9 9 8
1 1 1 2 2 2 2 3 4 5 4 4 4 5 5 6 6 6 7 7 7 7 7 7 7 6 6 7 7 7 7 7 8 8 8 9 9 9 8 9 9 9 8
1 1 2 2 2 3 3 4 5 6 6 5 6 6 6 7 7 7 7 8 8 8 8 8 8 8 8 8 8 8 8 8 8 9 10 9 9 9 8 9 9 10 9
2 3 3 3 4 4 4 5 6 6 6 6 7 7 8 8 9 9 8 9 9 9 9 10 10 10 10 10 10 10 10 10 10 10 10 9 9 9 9 9 9 9 9
3 3 4 4 5 5 5 6 6 7 7 7 8 8 9 9 9 9 9 10 10 10 10 11 11 12 13 12 12 11 12 11 11 11 10 10 10 11 10 9 9 8 9
4 4 5 6 6 7 7 8 8 8 9 9 10 10 10 11 11 11 11 11 11 11 12 12 12 13 13 13 12 12 12 11 12 11 11 11 11 11 10 9 9 9 10
5 6 6 7 7 8 8 9 10 10 10 10 11 12 12 12 12 12 13 12 13 13 13 13 13 14 13 14 13 13 13 12 11 11 11 11 11 11 11 10 10 10 10
6 7 7 8 8 9 10 10 11 11 11 12 12 13 13 13 13 14 14 15 15 15 15 15 14 14 14 14 13 13 13 12 12 12 12 11 11 11 11 11 11 11 11
8 8 8 9 9 10 11 12 12 13 13 13 14 14 14 14 14 15 15 16 17 17 17 16 15 15 15 15 14 14 14 13 13 13 13 13 13 12 12 12 12 12 12
9 9 10 10 10 12 13 13 13 14 14 15 15 15 15 16 16 16 17 17 17 17 17 17 17 17 16 15 15 15 15 14 14 14 14 14 14 14 14 14 13 13 14
10 10 11 12 12 13 13 14 14 15 15 16 16 16 17 17 18 18 18 18 19 18 18 18 18 18 17 17 16 15 16 16 16 15 15 15 15 15 16 15 14 15 15
12 12 13 14 14 14 15 16 16 16 16 17 17 17 18 18 19 20 20 20 20 20 19 20 19 18 18 18 17 17 17 17 17 16 16 16 16 16 17 18 17 16 16
13 14 15 15 16 16 17 17 17 17 17 18 18 19 19 19 19 20 20 20 21 21 20 20 19 19 19 18 18 18 18 18 18 18 18 18 18 17 17 18 18 18 18
15 16 16 17 17 18 18 18 18 19 19 19 20 20 20 21 21 21 21 21 21 20 20 20 21 21 21 20 19 19 20 20 20 19 19 19 20 19 19 19 20 20 21
17 17 18 18 19 19 20 20 20 20 21 21 21 22 22 22 22 23 22 22 22 21 21 21 22 22 23 23 22 21 22 22 21 21 22 22 22 22 21 21 22 22 22
18 19 19 19 20 21 21 21 21 22 22 22 23 23 23 23 23 24 23 22 22 23 23 23 22 23 23 23 23 23 24 24 24 24 24 24 24 24 23 23 23 24 24
20 20 20 21 21 22 22 23 23 24 24 24 24 24 24 24 24 24 23 24 24 24 24 25 24 24 24 24 25 25 25 25 25 26 26 26 26 26 25 25 25 25 26
22 22 22 22 22 22 23 23 24 24 23 23 24 24 24 24 24 24 24 24 24 25 25 25 24 24 25 25 26 25 25 26 26 27 27 27 27 27 26 26 27 27 27
23 23 23 23 23 24 24 24 24 24 24 24 24 25 25 25 25 25 24 25 25 25 25 25 25 26 26 27 28 28 28 27 27 28 28 28 28 28 28 28 28 28 29
24 24 25 24 24 24 24 25 25 25 25 25 26 25 25 25 26 26 26 26 26 26 26 26 26 27 28 28 28 29 29 28 28 29 30 30 30 30 30 30 30 31 30
24 25 25 25 25 25 25 25 24 25 26 26 27 26 26 26 27 27 27 27 27 27 27 27 27 28 29 29 29 29 30 31 31 32 32 32 32 33 33 32 32 32 32
25 25 25 26 26 25 25 25 25 25 26 26 26 27 27 28 28 28 28 28 28 29 29 29 29 29 30 30 30 31 31 31 31 31 32 32 31 32 33 33 33 33 33
26 26 26 26 26 26 25 26 26 25 25 27 27 28 28 28 28 28 29 29 30 30 29 29 30 30 30 31 31 31 31 32 31 32 33 33 32 32 32 33 33 33 33
Wind_Direction
94 96 89 86 85 74 69 63 49 47 44 45 41 35 26 14 2 342 340 344 339 330 318 312 309 311 310 305 304 297 296 299 294 285 284 280 269 262 259 262 258 256 251
87 95 91 82 90 73 49 43 29 13 11 18 22 12 4 356 346 338 329 325 327 323 318 313 306 305 304 301 303 302 299 304 300 296 291 289 275 266 264 265 263 258 250
93 86 91 86 85 47 2 352 343 334 332 338 336 331 341 340 337 334 328 322 315 312 308 313 313 310 303 299 300 300 296 295 299 299 293 286 280 275 270 268 267 264 253
92 78 60 56 49 21 353 340 332 324 321 321 314 310 312 312 315 320 322 322 317 311 307 305 306 306 303 300 297 295 295 293 295 296 294 284 282 279 272 267 267 263 250
80 50 15 9 1 353 345 339 337 330 324 315 305 301 302 304 306 314 316 316 314 309 305 302 299 297 295 295 294 292 294 294 292 290 288 283 279 279 275 268 263 259 243
359 344 318 321 323 324 326 331 330 329 326 319 314 309 306 305 307 309 308 312 311 306 303 299 295 291 286 286 287 287 288 289 290 290 288 286 280 276 273 267 260 257 247
323 320 314 315 320 319 322 323 323 322 318 313 309 304 301 300 302 303 302 303 303 299 300 296 291 287 284 283 283 285 285 286 288 290 287 285 283 280 267 261 260 257 251
319 315 317 315 314 313 312 313 313 314 310 306 304 305 304 301 301 299 298 298 298 294 297 295 289 287 286 285 284 284 281 282 284 286 284 288 286 283 276 259 259 259 257
319 320 316 310 312 313 314 314 310 308 305 301 298 299 300 300 298 294 294 293 293 293 294 293 287 286 286 286 285 283 280 280 281 282 283 285 283 280 276 263 256 262 258
314 314 311 308 307 308 309 309 309 304 300 299 299 298 295 295 296 292 289 288 289 289 288 290 287 284 284 284 283 285 281 280 279 279 280 279 278 282 277 274 263 263 257
315 315 310 302 302 303 308 309 308 302 298 298 298 298 297 294 295 293 290 288 288 287 287 288 289 285 284 282 283 289 285 281 282 281 279 275 274 275 276 274 264 263 260
311 309 308 305 302 303 306 308 306 303 301 299 296 295 295 294 293 291 291 290 288 288 286 287 288 287 286 282 283 286 287 283 283 282 279 275 272 271 273 272 265 263 262
311 310 311 310 306 305 304 305 304 304 305 303 301 298 296 295 295 292 291 290 287 286 284 286 287 286 284 281 281 282 284 281 280 279 276 274 270 269 270 269 267 267 266
313 308 307 307 306 306 306 305 304 302 302 301 299 298 296 295 292 291 291 291 289 286 283 282 283 284 281 279 278 279 279 278 277 277 273 271 269 267 266 265 266 267 265
311 309 306 305 304 304 304 303 302 302 301 301 299 297 295 293 291 289 290 290 288 284 283 282 282 283 282 279 276 276 277 277 276 276 274 273 271 270 265 263 263 262 264
307 306 303 301 300 301 303 304 304 303 301 300 300 298 295 293 291 291 290 288 288 285 281 280 280 283 286 281 276 275 276 276 276 275 273 272 272 271 268 265 263 260 261
305 303 303 301 300 300 301 302 302 301 300 299 298 297 295 294 292 291 290 285 285 286 284 281 282 283 283 282 279 275 274 274 275 273 273 273 271 270 268 266 263 260 260
301 300 301 300 299 299 299 299 299 299 298 297 296 297 296 295 292 290 289 286 284 284 283 281 281 280 280 278 277 275 274 274 272 272 271 271 270 269 268 267 266 264 263
299 298 299 299 298 297 297 298 297 296 295 294 294 295 296 296 294 292 288 287 286 283 282 280 280 279 279 278 276 276 275 273 271 271 271 271 270 269 269 269 268 266 264
298 298 297 298 297 297 297 298 297 296 294 293 293 294 295 296 295 293 290 288 286 284 282 281 280 280 278 278 276 275 274 273 272 271 271 272 271 270 269 270 268 267 266
296 295 295 296 297 298 298 298 298 297 295 295 296 295 295 295 296 294 291 289 286 284 283 282 282 281 279 279 277 276 276 274 272 271 271 271 272 271 270 270 269 268 268
294 294 294 295 296 297 297 297 298 297 295 295 296 295 295 295 295 295 292 289 286 285 284 283 283 283 283 282 279 278 279 277 275 274 273 272 271 270 269 268 270 270 268
293 293 294 295 296 296 296 296 297 296 294 295 295 294 294 295 294 293 293 291 288 286 285 284 283 282 283 283 281 279 278 277 276 275 274 273 271 271 270 269 269 269 268
293 294 294 295 296 296 296 296 296 297 295 295 295 295 296 295 294 293 292 291 288 287 286 284 283 283 283 282 280 279 278 279 279 279 279 278 275 274 273 273 271 270 269
294 293 294 294 295 296 295 295 296 296 297 297 297 297 296 296 294 293 292 291 290 287 285 284 284 284 284 283 280 279 280 281 281 281 281 280 276 275 274 272 270 270 269
296 294 295 296 295 294 295 296 297 297 297 298 299 299 298 296 294 293 292 291 290 290 288 286 285 285 284 283 282 281 281 281 281 280 280 280 277 276 274 272 271 270 269
Height
5885 5885 5884 5884 5884 5883 5883 5883 5883 5882 5881 5881 5880 5880 5880 5880 5880 5880 5880 5879 5879 5878 5878 5877 5877 5877 5876 5876 5875 5874 5874 5873 5872 5872 5871 5870 5869 5870 5871 5872 5872 5872 5872
5885 5885 5885 5884 5884 5884 5883 5883 5883 5882 5882 5881 5881 5881 5881 5881 5880 5880 5879 5879 5878 5878 5877 5877 5876 5876 5875 5875 5874 5873 5873 5872 5872 5871 5870 5869 5868 5869 5870 5870 5870 5870 5870
5885 5885 5885 5884 5884 5884 5883 5883 5883 5882 5882 5881 5881 5881 5881 5880 5880 5879 5879 5878 5878 5877 5876 5876 5875 5875 5874 5873 5873 5872 5872 5871 5871 5870 5869 5868 5868 5868 5868 5868 5868 5868 5868
5885 5885 5885 5884 5884 5884 5883 5883 5883 5882 5882 5881 5881 5881 5880 5880 5879 5879 5878 5878 5877 5876 5876 5875 5874 5873 5873 5872 5872 5871 5870 5870 5869 5869 5868 5867 5867 5867 5867 5866 5866 5866 5866
5885 5885 5885 5884 5884 5883 5883 5883 5882 5882 5881 5881 5880 5880 5879 5879 5878 5878 5877 5877 5876 5875 5874 5873 5873 5872 5871 5871 5870 5869 5869 5868 5868 5867 5866 5866 5865 5865 5865 5864 5865 5864 5864
5884 5884 5884 5884 5883 5883 5883 5882 5882 5881 5881 5880 5879 5879 5878 5878 5877 5876 5876 5875 5874 5873 5873 5872 5871 5870 5870 5869 5868 5868 5867 5866 5866 5865 5865 5863 5863 5862 5862 5862 5862 5862 5862
5884 5884 5883 5883 5883 5882 5882 5881 5881 5880 5880 5879 5878 5878 5877 5876 5876 5875 5874 5873 5872 5871 5870 5870 5869 5868 5867 5867 5866 5866 5865 5864 5864 5863 5862 5862 5861 5860 5859 5859 5860 5860 5861
5884 5883 5883 5882 5882 5881 5881 5880 5880 5879 5878 5877 5877 5876 5875 5875 5874 5873 5872 5871 5870 5869 5868 5867 5867 5866 5865 5864 5864 5863 5863 5862 5861 5861 5860 5859 5859 5858 5856 5857 5857 5858 5859
5883 5883 5882 5881 5880 5880 5879 5879 5878 5877 5877 5876 5875 5874 5873 5872 5871 5871 5870 5869 5868 5867 5866 5865 5864 5863 5862 5862 5861 5860 5860 5859 5859 5858 5857 5857 5856 5855 5854 5854 5855 5856 5856
5882 5881 5880 5879 5879 5878 5878 5877 5876 5875 5874 5873 5872 5871 5871 5870 5869 5868 5867 5866 5865 5864 5863 5862 5861 5860 5859 5859 5858 5858 5857 5856 5856 5855 5855 5854 5854 5853 5853 5853 5853 5854 5854
5880 5879 5878 5878 5877 5877 5876 5875 5874 5873 5872 5871 5870 5868 5867 5866 5865 5865 5864 5863 5862 5860 5860 5859 5858 5857 5856 5855 5855 5854 5854 5853 5853 5852 5852 5851 5851 5851 5850 5850 5850 5851 5851
5878 5877 5877 5876 5875 5875 5874 5873 5871 5870 5869 5868 5867 5865 5864 5863 5862 5861 5860 5859 5857 5857 5856 5855 5854 5853 5852 5851 5851 5851 5850 5850 5849 5849 5848 5848 5848 5848 5848 5848 5848 5848 5848
5877 5875 5874 5874 5873 5872 5871 5870 5868 5867 5866 5865 5863 5862 5861 5859 5858 5857 5856 5854 5853 5852 5852 5851 5850 5849 5848 5848 5847 5847 5846 5846 5845 5845 5845 5844 5844 5844 5844 5844 5844 5845 5845
5875 5873 5872 5871 5870 5869 5868 5866 5865 5864 5862 5861 5860 5858 5857 5855 5854 5852 5851 5850 5849 5848 5847 5846 5845 5844 5844 5843 5843 5843 5842 5842 5841 5841 5841 5840 5840 5840 5840 5840 5841 5841 5841
5872 5871 5870 5868 5867 5866 5864 5863 5861 5860 5859 5857 5856 5854 5853 5851 5849 5847 5846 5845 5844 5843 5842 5841 5840 5839 5839 5839 5838 5838 5838 5837 5837 5837 5836 5836 5836 5836 5836 5836 5836 5837 5836
5869 5868 5866 5865 5863 5862 5860 5859 5857 5856 5855 5853 5851 5850 5848 5846 5844 5842 5841 5840 5839 5838 5837 5836 5835 5835 5834 5834 5833 5833 5833 5833 5832 5832 5832 5832 5831 5830 5830 5831 5831 5831 5832
5866 5864 5863 5861 5859 5858 5856 5854 5853 5851 5850 5848 5847 5845 5843 5841 5839 5837 5836 5834 5833 5832 5831 5831 5830 5830 5829 5829 5828 5828 5828 5827 5827 5826 5826 5826 5826 5825 5825 5825 5825 5826 5826
5862 5860 5859 5857 5855 5853 5852 5850 5848 5846 5845 5843 5841 5839 5837 5836 5834 5832 5830 5829 5827 5826 5826 5825 5825 5824 5823 5823 5822 5822 5822 5821 5821 5821 5820 5820 5820 5820 5819 5819 5819 5819 5820
5858 5856 5854 5852 5850 5848 5847 5845 5843 5841 5839 5837 5836 5834 5832 5830 5828 5826 5824 5823 5821 5820 5819 5819 5818 5818 5817 5816 5816 5815 5815 5814 5814 5814 5814 5814 5813 5813 5813 5813 5813 5813 5813
5853 5851 5849 5847 5845 5843 5841 5839 5837 5835 5833 5831 5829 5827 5826 5824 5822 5820 5818 5817 5815 5814 5813 5812 5812 5811 5810 5809 5809 5808 5808 5807 5807 5807 5807 5806 5806 5806 5806 5806 5806 5805 5806
5847 5845 5843 5841 5839 5837 5835 5833 5831 5828 5826 5824 5823 5821 5819 5817 5815 5813 5811 5810 5808 5807 5806 5806 5805 5804 5803 5802 5802 5801 5800 5800 5800 5799 5799 5799 5798 5798 5798 5798 5798 5798 5798
5841 5839 5838 5836 5833 5831 5829 5826 5824 5822 5820 5818 5816 5814 5812 5810 5808 5807 5805 5803 5802 5800 5799 5798 5798 5797 5796 5795 5794 5792 5792 5792 5792 5791 5790 5790 5789 5789 5789 5789 5789 5789 5789
5835 5833 5831 5829 5827 5825 5822 5820 5818 5816 5813 5811 5809 5808 5806 5803 5801 5799 5797 5796 5794 5792 5792 5791 5790 5789 5787 5786 5785 5784 5784 5783 5783 5782 5781 5781 5780 5779 5779 5779 5779 5779 5779
5828 5826 5824 5822 5820 5818 5816 5813 5811 5809 5807 5805 5803 5801 5799 5796 5794 5792 5790 5788 5786 5785 5783 5782 5781 5780 5779 5777 5776 5775 5774 5774 5773 5772 5771 5771 5770 5769 5769 5768 5768 5768 5768
5821 5819 5817 5815 5813 5811 5808 5806 5804 5802 5800 5797 5795 5793 5791 5789 5787 5784 5782 5780 5778 5776 5775 5773 5772 5771 5770 5768 5767 5766 5765 5764 5764 5763 5761 5761 5760 5759 5758 5758 5757 5757 5757
5814 5812 5809 5807 5805 5803 5801 5799 5797 5795 5793 5790 5788 5786 5783 5781 5778 5776 5774 5772 5770 5768 5766 5765 5763 5762 5760 5759 5758 5757 5756 5755 5754 5753 5751 5750 5749 5748 5748 5747 5746 5746 5745